Time,TemperatureF,DewpointF,PressureIn,WindDirection,WindDirectionDegrees,WindSpeedMPH,WindSpeedGustMPH,Humidity,HourlyPrecipIn,Conditions,Clouds,dailyrainin,SoftwareType,DateUTC
2013-01-29 00:00:00,41.5,38.0,30.17,WSW,247,0.0,0.0,84,0.00,,,0.00,Rainwise IP-100,2013-01-29 08:00:00,
2013-01-29 00:05:00,41.2,37.0,30.17,WSW,247,1.4,0.0,85,0.00,,,0.00,Rainwise IP-100,2013-01-29 08:05:00,
2013-01-29 00:10:00,41.4,37.0,30.18,WSW,247,0.0,1.9,84,0.00,,,0.00,Rainwise IP-100,2013-01-29 08:10:00,
2013-01-29 00:15:00,41.9,37.0,30.18,WSW,247,0.0,1.4,83,0.00,,,0.00,Rainwise IP-100,2013-01-29 08:15:00,
2013-01-29 00:20:00,42.3,37.0,30.18,WSW,247,0.0,1.4,82,0.00,,,0.00,Rainwise IP-100,2013-01-29 08:20:00,
2013-01-29 00:25:00,42.3,37.0,30.18,WSW,247,0.0,1.2,82,0.00,,,0.00,Rainwise IP-100,2013-01-29 08:25:00,
2013-01-29 00:30:00,41.7,37.0,30.18,WSW,247,0.0,0.0,83,0.00,,,0.00,Rainwise IP-100,2013-01-29 08:30:00,
2013-01-29 00:35:00,40.9,37.0,30.18,WSW,247,0.0,1.2,84,0.00,,,0.00,Rainwise IP-100,2013-01-29 08:35:00,
2013-01-29 00:40:00,40.5,37.0,30.18,WSW,247,1.2,1.4,85,0.00,,,0.00,Rainwise IP-100,2013-01-29 08:40:00,
2013-01-29 00:45:00,40.9,37.0,30.18,WSW,247,0.0,1.2,84,0.00,,,0.00,Rainwise IP-100,2013-01-29 08:45:00,
2013-01-29 00:50:00,41.7,37.0,30.17,WSW,247,0.0,1.2,83,0.00,,,0.00,Rainwise IP-100,2013-01-29 08:50:00,
2013-01-29 00:53:00,42.0,37.0,30.18,WSW,247,1.4,1.9,82,0.00,,,0.00,Rainwise IP-100,2013-01-29 08:53:00,
2013-01-29 00:54:00,42.2,37.0,30.18,WSW,247,1.2,1.9,82,0.00,,,0.00,Rainwise IP-100,2013-01-29 08:54:00,
2013-01-29 00:59:00,42.5,38.0,30.17,WSW,247,1.2,1.4,81,0.00,,,0.00,Rainwise IP-100,2013-01-29 08:59:00,
2013-01-29 01:05:00,42.7,37.0,30.18,WSW,247,0.0,1.4,80,0.00,,,0.00,Rainwise IP-100,2013-01-29 09:05:00,
2013-01-29 01:10:00,42.7,37.0,30.18,WSW,247,0.0,1.4,79,0.00,,,0.00,Rainwise IP-100,2013-01-29 09:10:00,
2013-01-29 01:15:00,42.5,37.0,30.18,WSW,247,0.0,0.0,80,0.00,,,0.00,Rainwise IP-100,2013-01-29 09:15:00,
2013-01-29 01:20:00,41.8,37.0,30.19,WSW,247,0.0,0.0,81,0.00,,,0.00,Rainwise IP-100,2013-01-29 09:20:00,
2013-01-29 01:25:00,40.8,37.0,30.18,WSW,247,1.2,1.2,83,0.00,,,0.00,Rainwise IP-100,2013-01-29 09:25:00,
2013-01-29 01:30:00,40.3,36.0,30.18,WNW,292,2.6,3.0,84,0.00,,,0.00,Rainwise IP-100,2013-01-29 09:30:00,
2013-01-29 01:35:00,40.9,36.0,30.18,NW,315,2.8,4.0,82,0.00,,,0.00,Rainwise IP-100,2013-01-29 09:35:00,
2013-01-29 01:40:00,41.9,36.0,30.18,NW,315,0.0,3.5,79,0.00,,,0.00,Rainwise IP-100,2013-01-29 09:40:00,
2013-01-29 01:45:00,42.5,37.0,30.18,NW,315,1.6,1.6,78,0.00,,,0.00,Rainwise IP-100,2013-01-29 09:45:00,
2013-01-29 01:50:00,42.4,36.0,30.18,NW,315,0.0,1.6,78,0.00,,,0.00,Rainwise IP-100,2013-01-29 09:50:00,
2013-01-29 01:55:00,41.7,36.0,30.18,NW,315,3.3,3.3,79,0.00,,,0.00,Rainwise IP-100,2013-01-29 09:55:00,
2013-01-29 02:00:00,41.5,36.0,30.18,NW,315,2.8,3.7,79,0.00,,,0.00,Rainwise IP-100,2013-01-29 10:00:00,
2013-01-29 02:05:00,42.2,36.0,30.18,WNW,292,0.0,3.3,77,0.00,,,0.00,Rainwise IP-100,2013-01-29 10:05:00,
2013-01-29 02:10:00,42.3,36.0,30.19,SSW,202,0.0,1.9,77,0.00,,,0.00,Rainwise IP-100,2013-01-29 10:10:00,
2013-01-29 02:15:00,41.7,36.0,30.19,SSW,202,0.0,0.0,79,0.00,,,0.00,Rainwise IP-100,2013-01-29 10:15:00,
2013-01-29 02:20:00,40.7,36.0,30.18,SSW,202,0.0,0.0,81,0.00,,,0.00,Rainwise IP-100,2013-01-29 10:20:00,
2013-01-29 02:25:00,40.5,36.0,30.18,WNW,292,0.0,4.4,81,0.00,,,0.00,Rainwise IP-100,2013-01-29 10:25:00,
2013-01-29 02:30:00,41.1,36.0,30.18,NW,315,0.0,3.0,79,0.00,,,0.00,Rainwise IP-100,2013-01-29 10:30:00,
2013-01-29 02:35:00,41.7,36.0,30.18,NNW,337,1.4,2.3,77,0.00,,,0.00,Rainwise IP-100,2013-01-29 10:35:00,
2013-01-29 02:40:00,42.1,36.0,30.18,NNW,337,1.2,1.6,76,0.00,,,0.00,Rainwise IP-100,2013-01-29 10:40:00,
2013-01-29 02:45:00,42.1,36.0,30.17,NW,315,0.0,2.8,76,0.00,,,0.00,Rainwise IP-100,2013-01-29 10:45:00,
2013-01-29 02:50:00,41.9,36.0,30.18,WNW,292,2.6,3.5,76,0.00,,,0.00,Rainwise IP-100,2013-01-29 10:50:00,
2013-01-29 02:55:00,42.0,36.0,30.18,WNW,292,0.0,3.5,76,0.00,,,0.00,Rainwise IP-100,2013-01-29 10:55:00,
2013-01-29 03:00:00,41.9,36.0,30.18,WNW,292,0.0,1.4,76,0.00,,,0.00,Rainwise IP-100,2013-01-29 11:00:00,
2013-01-29 03:05:00,41.5,36.0,30.18,WNW,292,1.4,1.4,77,0.00,,,0.00,Rainwise IP-100,2013-01-29 11:05:00,
2013-01-29 03:10:00,41.1,35.0,30.18,WNW,292,1.6,2.8,78,0.00,,,0.00,Rainwise IP-100,2013-01-29 11:10:00,
2013-01-29 03:15:00,41.2,35.0,30.18,NW,315,3.7,4.2,78,0.00,,,0.00,Rainwise IP-100,2013-01-29 11:15:00,
2013-01-29 03:20:00,41.6,36.0,30.18,NW,315,0.0,3.7,77,0.00,,,0.00,Rainwise IP-100,2013-01-29 11:20:00,
2013-01-29 03:25:00,42.0,36.0,30.18,NW,315,1.6,1.9,77,0.00,,,0.00,Rainwise IP-100,2013-01-29 11:25:00,
2013-01-29 03:30:00,42.1,36.0,30.18,NW,315,0.0,1.6,77,0.00,,,0.00,Rainwise IP-100,2013-01-29 11:30:00,
2013-01-29 03:35:00,42.1,36.0,30.18,NW,315,1.6,2.1,77,0.00,,,0.00,Rainwise IP-100,2013-01-29 11:35:00,
2013-01-29 03:40:00,42.0,36.0,30.18,NW,315,3.0,3.0,77,0.00,,,0.00,Rainwise IP-100,2013-01-29 11:40:00,
2013-01-29 03:45:00,42.1,36.0,30.18,NNW,337,2.1,3.5,77,0.00,,,0.00,Rainwise IP-100,2013-01-29 11:45:00,
2013-01-29 03:50:00,42.3,36.0,30.19,NW,315,1.4,3.5,77,0.00,,,0.00,Rainwise IP-100,2013-01-29 11:50:00,
2013-01-29 03:55:00,42.4,36.0,30.18,NNW,337,0.0,3.0,77,0.00,,,0.00,Rainwise IP-100,2013-01-29 11:55:00,
2013-01-29 04:00:00,41.9,36.0,30.18,NNW,337,0.0,0.0,78,0.00,,,0.00,Rainwise IP-100,2013-01-29 12:00:00,
2013-01-29 04:05:00,41.2,36.0,30.18,NW,315,2.1,2.3,79,0.00,,,0.00,Rainwise IP-100,2013-01-29 12:05:00,
2013-01-29 04:10:00,41.3,35.0,30.18,NW,315,3.0,4.2,78,0.00,,,0.00,Rainwise IP-100,2013-01-29 12:10:00,
2013-01-29 04:15:00,41.9,36.0,30.18,NW,315,1.2,3.7,77,0.00,,,0.00,Rainwise IP-100,2013-01-29 12:15:00,
2013-01-29 04:20:00,42.2,36.0,30.18,NW,315,0.0,1.2,77,0.00,,,0.00,Rainwise IP-100,2013-01-29 12:20:00,
2013-01-29 04:25:00,41.8,36.0,30.18,NW,315,1.4,2.1,78,0.00,,,0.00,Rainwise IP-100,2013-01-29 12:25:00,
2013-01-29 04:30:00,41.3,36.0,30.18,NW,315,1.6,2.1,80,0.00,,,0.00,Rainwise IP-100,2013-01-29 12:30:00,
2013-01-29 04:35:00,41.3,36.0,30.18,NW,315,1.2,2.3,80,0.00,,,0.00,Rainwise IP-100,2013-01-29 12:35:00,
2013-01-29 04:40:00,41.8,36.0,30.18,NW,315,0.0,1.9,79,0.00,,,0.00,Rainwise IP-100,2013-01-29 12:40:00,
2013-01-29 04:45:00,42.0,36.0,30.18,NW,315,0.0,1.2,79,0.00,,,0.00,Rainwise IP-100,2013-01-29 12:45:00,
2013-01-29 04:50:00,41.5,37.0,30.18,NW,315,0.0,0.0,80,0.00,,,0.00,Rainwise IP-100,2013-01-29 12:50:00,
2013-01-29 04:55:00,40.6,36.0,30.18,NW,315,0.0,0.0,82,0.00,,,0.00,Rainwise IP-100,2013-01-29 12:55:00,
2013-01-29 05:00:00,40.0,36.0,30.18,NW,315,0.0,1.4,83,0.00,,,0.00,Rainwise IP-100,2013-01-29 13:00:00,
2013-01-29 05:05:00,39.9,36.0,30.18,NW,315,1.2,1.4,84,0.00,,,0.00,Rainwise IP-100,2013-01-29 13:05:00,
2013-01-29 05:10:00,40.2,36.0,30.19,NW,315,0.0,1.4,83,0.00,,,0.00,Rainwise IP-100,2013-01-29 13:10:00,
2013-01-29 05:15:00,40.4,36.0,30.19,NW,315,0.0,0.0,83,0.00,,,0.00,Rainwise IP-100,2013-01-29 13:15:00,
2013-01-29 05:20:00,40.3,36.0,30.19,NW,315,1.2,1.4,83,0.00,,,0.00,Rainwise IP-100,2013-01-29 13:20:00,
2013-01-29 05:25:00,40.5,36.0,30.19,NW,315,2.1,2.3,82,0.00,,,0.00,Rainwise IP-100,2013-01-29 13:25:00,
2013-01-29 05:30:00,41.0,36.0,30.19,NNW,337,2.1,4.2,80,0.00,,,0.00,Rainwise IP-100,2013-01-29 13:30:00,
2013-01-29 05:35:00,41.6,36.0,30.19,NW,315,3.3,3.5,78,0.00,,,0.00,Rainwise IP-100,2013-01-29 13:35:00,
2013-01-29 05:40:00,42.1,36.0,30.19,NW,315,1.9,3.3,77,0.00,,,0.00,Rainwise IP-100,2013-01-29 13:40:00,
2013-01-29 05:45:00,42.4,36.0,30.19,NW,315,1.9,2.1,76,0.00,,,0.00,Rainwise IP-100,2013-01-29 13:45:00,
2013-01-29 05:50:00,42.5,36.0,30.19,NW,315,0.0,2.3,76,0.00,,,0.00,Rainwise IP-100,2013-01-29 13:50:00,
2013-01-29 05:55:00,42.4,36.0,30.19,NW,315,1.2,2.3,76,0.00,,,0.00,Rainwise IP-100,2013-01-29 13:55:00,
2013-01-29 06:00:00,42.3,36.0,30.19,NW,315,1.2,2.1,76,0.00,,,0.00,Rainwise IP-100,2013-01-29 14:00:00,
2013-01-29 06:05:00,42.2,36.0,30.19,NW,315,0.0,2.1,76,0.00,,,0.00,Rainwise IP-100,2013-01-29 14:05:00,
2013-01-29 06:10:00,41.9,36.0,30.19,NW,315,1.4,1.4,77,0.00,,,0.00,Rainwise IP-100,2013-01-29 14:10:00,
2013-01-29 06:15:00,41.7,36.0,30.19,NW,315,1.9,2.8,77,0.00,,,0.00,Rainwise IP-100,2013-01-29 14:15:00,
2013-01-29 06:20:00,41.8,36.0,30.20,NW,315,2.1,3.0,77,0.00,,,0.00,Rainwise IP-100,2013-01-29 14:20:00,
2013-01-29 06:25:00,42.1,36.0,30.20,NW,315,1.2,3.3,77,0.00,,,0.00,Rainwise IP-100,2013-01-29 14:25:00,
2013-01-29 06:30:00,42.4,36.0,30.20,NW,315,2.1,3.3,76,0.00,,,0.00,Rainwise IP-100,2013-01-29 14:30:00,
2013-01-29 06:35:00,42.6,36.0,30.20,NW,315,0.0,2.3,76,0.00,,,0.00,Rainwise IP-100,2013-01-29 14:35:00,
2013-01-29 06:40:00,42.6,36.0,30.20,NW,315,0.0,1.4,76,0.00,,,0.00,Rainwise IP-100,2013-01-29 14:40:00,
2013-01-29 06:45:00,42.3,36.0,30.21,NW,315,1.4,1.9,77,0.00,,,0.00,Rainwise IP-100,2013-01-29 14:45:00,
2013-01-29 06:50:00,42.1,36.0,30.21,NW,315,2.3,2.6,77,0.00,,,0.00,Rainwise IP-100,2013-01-29 14:50:00,
2013-01-29 06:55:00,42.2,36.0,30.20,WNW,292,1.9,3.3,76,0.00,,,0.00,Rainwise IP-100,2013-01-29 14:55:00,
2013-01-29 07:00:00,42.5,36.0,30.20,WNW,292,0.0,2.8,76,0.00,,,0.00,Rainwise IP-100,2013-01-29 15:00:00,
2013-01-29 07:05:00,42.7,36.0,30.21,WNW,292,1.2,2.1,76,0.00,,,0.00,Rainwise IP-100,2013-01-29 15:05:00,
2013-01-29 07:10:00,42.6,37.0,30.21,North,360,0.0,3.5,77,0.00,,,0.00,Rainwise IP-100,2013-01-29 15:10:00,
2013-01-29 07:15:00,42.7,36.0,30.21,NW,315,0.0,3.3,76,0.00,,,0.00,Rainwise IP-100,2013-01-29 15:15:00,
2013-01-29 07:20:00,43.1,36.0,30.21,NW,315,0.0,2.1,76,0.00,,,0.00,Rainwise IP-100,2013-01-29 15:20:00,
2013-01-29 07:25:00,43.7,37.0,30.22,NW,315,0.0,1.9,76,0.00,,,0.00,Rainwise IP-100,2013-01-29 15:25:00,
2013-01-29 07:30:00,44.2,37.0,30.22,NW,315,0.0,0.0,76,0.00,,,0.00,Rainwise IP-100,2013-01-29 15:30:00,
2013-01-29 07:35:00,44.7,38.0,30.23,NW,315,0.0,0.0,75,0.00,,,0.00,Rainwise IP-100,2013-01-29 15:35:00,
2013-01-29 07:40:00,45.0,38.0,30.23,North,360,0.0,1.6,75,0.00,,,0.00,Rainwise IP-100,2013-01-29 15:40:00,
2013-01-29 07:45:00,45.0,38.0,30.22,North,360,0.0,0.0,76,0.00,,,0.00,Rainwise IP-100,2013-01-29 15:45:00,
2013-01-29 07:50:00,45.5,39.0,30.23,North,360,3.3,3.3,76,0.00,,,0.00,Rainwise IP-100,2013-01-29 15:50:00,
2013-01-29 07:55:00,46.0,38.0,30.23,ESE,112,0.0,3.3,74,0.00,,,0.00,Rainwise IP-100,2013-01-29 15:55:00,
2013-01-29 08:00:00,46.1,38.0,30.23,ESE,112,0.0,1.6,73,0.00,,,0.00,Rainwise IP-100,2013-01-29 16:00:00,
2013-01-29 08:05:00,46.2,38.0,30.24,ESE,112,0.0,0.0,73,0.00,,,0.00,Rainwise IP-100,2013-01-29 16:05:00,
2013-01-29 08:10:00,46.7,38.0,30.23,NNE,22,2.1,2.3,72,0.00,,,0.00,Rainwise IP-100,2013-01-29 16:10:00,
2013-01-29 08:15:00,47.5,38.0,30.23,ESE,112,0.0,2.6,70,0.00,,,0.00,Rainwise IP-100,2013-01-29 16:15:00,
2013-01-29 08:20:00,48.0,38.0,30.24,NNE,22,1.2,2.6,69,0.00,,,0.00,Rainwise IP-100,2013-01-29 16:20:00,
2013-01-29 08:25:00,48.5,39.0,30.24,North,360,0.0,3.7,69,0.00,,,0.00,Rainwise IP-100,2013-01-29 16:25:00,
2013-01-29 08:30:00,48.9,39.0,30.24,North,360,1.6,2.6,68,0.00,,,0.00,Rainwise IP-100,2013-01-29 16:30:00,
2013-01-29 08:35:00,49.4,38.0,30.24,North,360,1.4,3.5,66,0.00,,,0.00,Rainwise IP-100,2013-01-29 16:35:00,
2013-01-29 08:40:00,49.8,38.0,30.24,North,360,1.2,3.0,65,0.00,,,0.00,Rainwise IP-100,2013-01-29 16:40:00,
2013-01-29 08:45:00,50.1,38.0,30.24,NNE,22,2.3,4.4,65,0.00,,,0.00,Rainwise IP-100,2013-01-29 16:45:00,
2013-01-29 08:50:00,50.5,39.0,30.24,NNE,22,2.3,4.2,64,0.00,,,0.00,Rainwise IP-100,2013-01-29 16:50:00,
2013-01-29 08:55:00,50.9,39.0,30.24,NNE,22,2.1,3.0,64,0.00,,,0.00,Rainwise IP-100,2013-01-29 16:55:00,
2013-01-29 09:00:00,51.4,39.0,30.24,NNE,22,1.9,2.8,64,0.00,,,0.00,Rainwise IP-100,2013-01-29 17:00:00,
2013-01-29 09:05:00,52.0,40.0,30.24,North,360,1.2,2.6,64,0.00,,,0.00,Rainwise IP-100,2013-01-29 17:05:00,
2013-01-29 09:10:00,52.6,40.0,30.24,North,360,1.9,3.5,63,0.00,,,0.00,Rainwise IP-100,2013-01-29 17:10:00,
2013-01-29 09:15:00,53.1,40.0,30.24,ESE,112,0.0,2.3,62,0.00,,,0.00,Rainwise IP-100,2013-01-29 17:15:00,
2013-01-29 09:20:00,53.7,40.0,30.24,ESE,112,0.0,1.9,61,0.00,,,0.00,Rainwise IP-100,2013-01-29 17:20:00,
2013-01-29 09:25:00,54.3,41.0,30.24,ESE,112,0.0,2.1,60,0.00,,,0.00,Rainwise IP-100,2013-01-29 17:25:00,
2013-01-29 09:30:00,54.8,41.0,30.25,SE,135,0.0,1.9,59,0.00,,,0.00,Rainwise IP-100,2013-01-29 17:30:00,
2013-01-29 09:35:00,55.1,41.0,30.25,SSW,202,2.8,4.2,59,0.00,,,0.00,Rainwise IP-100,2013-01-29 17:35:00,
2013-01-29 09:40:00,55.4,41.0,30.25,SSW,202,4.0,4.7,59,0.00,,,0.00,Rainwise IP-100,2013-01-29 17:40:00,
2013-01-29 09:45:00,55.6,41.0,30.24,SSE,157,1.2,4.2,58,0.00,,,0.00,Rainwise IP-100,2013-01-29 17:45:00,
2013-01-29 09:50:00,55.5,41.0,30.24,SSE,157,3.0,4.0,58,0.00,,,0.00,Rainwise IP-100,2013-01-29 17:50:00,
2013-01-29 09:55:00,55.6,41.0,30.24,SSW,202,1.9,4.7,57,0.00,,,0.00,Rainwise IP-100,2013-01-29 17:55:00,
2013-01-29 10:00:00,55.8,41.0,30.24,SSE,157,2.1,3.7,57,0.00,,,0.00,Rainwise IP-100,2013-01-29 18:00:00,
2013-01-29 10:05:00,55.8,41.0,30.24,SSW,202,5.6,5.6,57,0.00,,,0.00,Rainwise IP-100,2013-01-29 18:05:00,
2013-01-29 10:10:00,55.8,41.0,30.24,SSE,157,1.4,5.6,58,0.00,,,0.00,Rainwise IP-100,2013-01-29 18:10:00,
2013-01-29 10:15:00,55.8,42.0,30.24,SSW,202,3.3,6.3,59,0.00,,,0.00,Rainwise IP-100,2013-01-29 18:15:00,
2013-01-29 10:20:00,56.0,42.0,30.24,SSW,202,1.9,5.8,60,0.00,,,0.00,Rainwise IP-100,2013-01-29 18:20:00,
2013-01-29 10:25:00,56.1,42.0,30.24,SSE,157,7.0,7.0,60,0.00,,,0.00,Rainwise IP-100,2013-01-29 18:25:00,
2013-01-29 10:30:00,56.2,42.0,30.24,SSE,157,3.7,7.0,61,0.00,,,0.00,Rainwise IP-100,2013-01-29 18:30:00,
2013-01-29 10:35:00,56.2,42.0,30.24,SSW,202,4.2,7.0,61,0.00,,,0.00,Rainwise IP-100,2013-01-29 18:35:00,
2013-01-29 10:40:00,56.2,42.0,30.24,SSW,202,2.8,7.2,61,0.00,,,0.00,Rainwise IP-100,2013-01-29 18:40:00,
2013-01-29 10:45:00,56.4,43.0,30.24,SSW,202,5.4,5.6,60,0.00,,,0.00,Rainwise IP-100,2013-01-29 18:45:00,
2013-01-29 10:50:00,56.6,42.0,30.24,SSW,202,0.0,7.5,58,0.00,,,0.00,Rainwise IP-100,2013-01-29 18:50:00,
2013-01-29 10:55:00,56.6,41.0,30.24,SSW,202,4.7,6.1,56,0.00,,,0.00,Rainwise IP-100,2013-01-29 18:55:00,
2013-01-29 11:00:00,56.8,41.0,30.24,SSW,202,4.2,7.2,56,0.00,,,0.00,Rainwise IP-100,2013-01-29 19:00:00,
2013-01-29 11:05:00,56.9,41.0,30.23,SW,225,1.4,5.6,55,0.00,,,0.00,Rainwise IP-100,2013-01-29 19:05:00,
2013-01-29 11:10:00,57.2,41.0,30.23,SE,135,3.0,7.2,55,0.00,,,0.00,Rainwise IP-100,2013-01-29 19:10:00,
2013-01-29 11:15:00,57.3,41.0,30.23,SSW,202,3.7,5.4,55,0.00,,,0.00,Rainwise IP-100,2013-01-29 19:15:00,
2013-01-29 11:20:00,57.4,41.0,30.23,SSW,202,4.7,6.1,55,0.00,,,0.00,Rainwise IP-100,2013-01-29 19:20:00,
2013-01-29 11:25:00,57.7,41.0,30.23,NNE,22,0.0,6.8,55,0.00,,,0.00,Rainwise IP-100,2013-01-29 19:25:00,
2013-01-29 11:30:00,58.0,42.0,30.22,SSW,202,3.3,6.3,55,0.00,,,0.00,Rainwise IP-100,2013-01-29 19:30:00,
2013-01-29 11:35:00,58.3,41.0,30.22,SSE,157,2.8,5.8,54,0.00,,,0.00,Rainwise IP-100,2013-01-29 19:35:00,
2013-01-29 11:40:00,58.4,41.0,30.22,SSW,202,1.9,7.0,53,0.00,,,0.00,Rainwise IP-100,2013-01-29 19:40:00,
2013-01-29 11:45:00,58.6,42.0,30.21,South,180,5.8,6.3,54,0.00,,,0.00,Rainwise IP-100,2013-01-29 19:45:00,
2013-01-29 11:50:00,58.7,42.0,30.21,SSE,157,2.6,6.5,54,0.00,,,0.00,Rainwise IP-100,2013-01-29 19:50:00,
2013-01-29 11:55:00,58.5,43.0,30.20,SSW,202,0.0,7.0,55,0.00,,,0.00,Rainwise IP-100,2013-01-29 19:55:00,
2013-01-29 12:00:00,58.5,43.0,30.20,ESE,112,3.3,6.3,55,0.00,,,0.00,Rainwise IP-100,2013-01-29 20:00:00,
2013-01-29 12:05:00,58.5,42.0,30.20,SSE,157,1.6,6.8,54,0.00,,,0.00,Rainwise IP-100,2013-01-29 20:05:00,
2013-01-29 12:10:00,58.4,41.0,30.20,South,180,3.7,6.1,54,0.00,,,0.00,Rainwise IP-100,2013-01-29 20:10:00,
2013-01-29 12:15:00,58.5,43.0,30.20,SSW,202,5.4,6.3,55,0.00,,,0.00,Rainwise IP-100,2013-01-29 20:15:00,
2013-01-29 12:20:00,58.3,42.0,30.20,South,180,7.5,7.5,55,0.00,,,0.00,Rainwise IP-100,2013-01-29 20:20:00,
2013-01-29 12:25:00,58.0,42.0,30.19,SSE,157,3.3,10.7,55,0.00,,,0.00,Rainwise IP-100,2013-01-29 20:25:00,
2013-01-29 12:30:00,57.8,42.0,30.19,SSE,157,4.7,6.8,56,0.00,,,0.00,Rainwise IP-100,2013-01-29 20:30:00,
2013-01-29 12:35:00,57.7,43.0,30.19,SSW,202,7.2,8.4,58,0.00,,,0.00,Rainwise IP-100,2013-01-29 20:35:00,
2013-01-29 12:40:00,57.3,43.0,30.19,SSW,202,3.7,9.6,59,0.00,,,0.00,Rainwise IP-100,2013-01-29 20:40:00,
2013-01-29 12:45:00,57.1,42.0,30.19,SSE,157,4.0,7.9,58,0.00,,,0.00,Rainwise IP-100,2013-01-29 20:45:00,
2013-01-29 12:50:00,57.4,43.0,30.19,South,180,3.3,8.2,58,0.00,,,0.00,Rainwise IP-100,2013-01-29 20:50:00,
2013-01-29 12:55:00,57.7,43.0,30.19,SSW,202,6.8,8.2,58,0.00,,,0.00,Rainwise IP-100,2013-01-29 20:55:00,
2013-01-29 13:00:00,57.6,43.0,30.18,SSW,202,2.1,8.6,58,0.00,,,0.00,Rainwise IP-100,2013-01-29 21:00:00,
2013-01-29 13:05:00,57.5,42.0,30.18,SSW,202,5.6,9.3,57,0.00,,,0.00,Rainwise IP-100,2013-01-29 21:05:00,
2013-01-29 13:10:00,57.4,41.0,30.18,South,180,2.6,7.9,55,0.00,,,0.00,Rainwise IP-100,2013-01-29 21:10:00,
2013-01-29 13:15:00,57.4,41.0,30.18,SSW,202,2.3,7.5,55,0.00,,,0.00,Rainwise IP-100,2013-01-29 21:15:00,
2013-01-29 13:20:00,57.7,41.0,30.18,SSE,157,5.4,9.6,55,0.00,,,0.00,Rainwise IP-100,2013-01-29 21:20:00,
2013-01-29 13:25:00,57.6,41.0,30.17,SW,225,3.5,9.1,54,0.00,,,0.00,Rainwise IP-100,2013-01-29 21:25:00,
2013-01-29 13:30:00,57.5,40.0,30.17,South,180,4.4,7.0,53,0.00,,,0.00,Rainwise IP-100,2013-01-29 21:30:00,
2013-01-29 13:35:00,57.7,39.0,30.17,SSW,202,5.6,6.8,51,0.00,,,0.00,Rainwise IP-100,2013-01-29 21:35:00,
2013-01-29 13:40:00,57.8,40.0,30.17,SSW,202,0.0,7.9,50,0.00,,,0.00,Rainwise IP-100,2013-01-29 21:40:00,
2013-01-29 13:45:00,58.0,39.0,30.17,SSW,202,1.6,7.0,49,0.00,,,0.00,Rainwise IP-100,2013-01-29 21:45:00,
2013-01-29 13:50:00,58.3,39.0,30.17,South,180,3.7,7.7,49,0.00,,,0.00,Rainwise IP-100,2013-01-29 21:50:00,
2013-01-29 13:55:00,58.3,40.0,30.17,SSW,202,4.9,10.7,50,0.00,,,0.00,Rainwise IP-100,2013-01-29 21:55:00,
2013-01-29 14:00:00,58.0,40.0,30.17,SSW,202,4.0,10.5,50,0.00,,,0.00,Rainwise IP-100,2013-01-29 22:00:00,
2013-01-29 14:05:00,57.7,39.0,30.17,SSW,202,5.1,6.8,49,0.00,,,0.00,Rainwise IP-100,2013-01-29 22:05:00,
2013-01-29 14:10:00,58.0,39.0,30.17,SSW,202,2.3,8.6,48,0.00,,,0.00,Rainwise IP-100,2013-01-29 22:10:00,
2013-01-29 14:15:00,58.5,39.0,30.17,SSW,202,2.6,6.1,48,0.00,,,0.00,Rainwise IP-100,2013-01-29 22:15:00,
2013-01-29 14:20:00,58.8,38.0,30.17,SSE,157,1.6,7.7,46,0.00,,,0.00,Rainwise IP-100,2013-01-29 22:20:00,
2013-01-29 14:25:00,59.0,38.0,30.17,SSW,202,4.7,6.5,45,0.00,,,0.00,Rainwise IP-100,2013-01-29 22:25:00,
2013-01-29 14:30:00,58.7,39.0,30.17,SSW,202,4.0,8.2,47,0.00,,,0.00,Rainwise IP-100,2013-01-29 22:30:00,
2013-01-29 14:35:00,58.2,39.0,30.17,SSW,202,6.5,6.5,49,0.00,,,0.00,Rainwise IP-100,2013-01-29 22:35:00,
2013-01-29 14:40:00,58.2,39.0,30.17,SSW,202,6.5,8.4,49,0.00,,,0.00,Rainwise IP-100,2013-01-29 22:40:00,
2013-01-29 14:45:00,57.8,39.0,30.17,SSW,202,2.8,8.9,48,0.00,,,0.00,Rainwise IP-100,2013-01-29 22:45:00,
2013-01-29 14:50:00,57.5,39.0,30.17,SSW,202,3.3,5.8,49,0.00,,,0.00,Rainwise IP-100,2013-01-29 22:50:00,
2013-01-29 14:55:00,57.9,40.0,30.17,SSW,202,4.0,6.8,50,0.00,,,0.00,Rainwise IP-100,2013-01-29 22:55:00,
2013-01-29 15:00:00,58.0,39.0,30.17,South,180,4.9,8.4,49,0.00,,,0.00,Rainwise IP-100,2013-01-29 23:00:00,
2013-01-29 15:05:00,57.8,39.0,30.17,SSW,202,3.0,5.4,49,0.00,,,0.00,Rainwise IP-100,2013-01-29 23:05:00,
2013-01-29 15:10:00,57.8,40.0,30.17,SSW,202,3.7,7.0,50,0.00,,,0.00,Rainwise IP-100,2013-01-29 23:10:00,
2013-01-29 15:15:00,57.8,40.0,30.17,SSW,202,2.6,6.1,50,0.00,,,0.00,Rainwise IP-100,2013-01-29 23:15:00,
2013-01-29 15:20:00,57.8,40.0,30.17,SSW,202,5.1,5.1,51,0.00,,,0.00,Rainwise IP-100,2013-01-29 23:20:00,
2013-01-29 15:25:00,57.4,39.0,30.17,SSW,202,3.3,6.3,51,0.00,,,0.00,Rainwise IP-100,2013-01-29 23:25:00,
2013-01-29 15:30:00,57.2,39.0,30.18,SSW,202,2.3,5.6,52,0.00,,,0.00,Rainwise IP-100,2013-01-29 23:30:00,
2013-01-29 15:35:00,57.1,40.0,30.18,SSW,202,3.0,5.4,53,0.00,,,0.00,Rainwise IP-100,2013-01-29 23:35:00,
2013-01-29 15:40:00,56.9,40.0,30.18,SSE,157,2.3,5.8,53,0.00,,,0.00,Rainwise IP-100,2013-01-29 23:40:00,
2013-01-29 15:45:00,56.9,41.0,30.18,SSW,202,2.3,4.4,55,0.00,,,0.00,Rainwise IP-100,2013-01-29 23:45:00,
2013-01-29 15:50:00,56.7,40.0,30.18,SSW,202,1.6,4.7,55,0.00,,,0.00,Rainwise IP-100,2013-01-29 23:50:00,
2013-01-29 15:55:00,56.4,40.0,30.18,SSW,202,2.3,3.7,55,0.00,,,0.00,Rainwise IP-100,2013-01-29 23:55:00,
2013-01-29 16:00:00,56.0,40.0,30.18,SSW,202,0.0,3.7,56,0.00,,,0.00,Rainwise IP-100,2013-01-30 00:00:00,
2013-01-29 16:05:00,55.6,41.0,30.18,South,180,2.8,3.5,57,0.00,,,0.00,Rainwise IP-100,2013-01-30 00:05:00,
2013-01-29 16:10:00,55.3,41.0,30.18,SSW,202,0.0,4.9,58,0.00,,,0.00,Rainwise IP-100,2013-01-30 00:10:00,
2013-01-29 16:15:00,55.0,41.0,30.18,SSW,202,1.6,3.7,59,0.00,,,0.00,Rainwise IP-100,2013-01-30 00:15:00,
2013-01-29 16:20:00,54.6,41.0,30.17,SSW,202,1.6,1.6,61,0.00,,,0.00,Rainwise IP-100,2013-01-30 00:20:00,
2013-01-29 16:25:00,54.4,42.0,30.18,SSW,202,2.8,4.2,62,0.00,,,0.00,Rainwise IP-100,2013-01-30 00:25:00,
2013-01-29 16:30:00,54.1,41.0,30.18,SSW,202,1.6,4.0,62,0.00,,,0.00,Rainwise IP-100,2013-01-30 00:30:00,
2013-01-29 16:35:00,53.8,41.0,30.18,SSW,202,1.6,2.6,63,0.00,,,0.00,Rainwise IP-100,2013-01-30 00:35:00,
2013-01-29 16:40:00,53.6,41.0,30.18,SSW,202,0.0,1.9,64,0.00,,,0.00,Rainwise IP-100,2013-01-30 00:40:00,
2013-01-29 16:45:00,53.4,42.0,30.18,SSW,202,0.0,0.0,65,0.00,,,0.00,Rainwise IP-100,2013-01-30 00:45:00,
2013-01-29 16:50:00,53.0,41.0,30.19,SSW,202,0.0,0.0,66,0.00,,,0.00,Rainwise IP-100,2013-01-30 00:50:00,
2013-01-29 16:55:00,52.5,41.0,30.19,SSW,202,0.0,0.0,66,0.00,,,0.00,Rainwise IP-100,2013-01-30 00:55:00,
2013-01-29 17:00:00,52.1,41.0,30.19,SSW,202,0.0,0.0,67,0.00,,,0.00,Rainwise IP-100,2013-01-30 01:00:00,
2013-01-29 17:05:00,51.8,42.0,30.19,SSW,202,0.0,0.0,69,0.00,,,0.00,Rainwise IP-100,2013-01-30 01:05:00,
2013-01-29 17:10:00,51.5,42.0,30.19,SSW,202,0.0,0.0,70,0.00,,,0.00,Rainwise IP-100,2013-01-30 01:10:00,
2013-01-29 17:15:00,51.1,42.0,30.19,SSW,202,0.0,0.0,71,0.00,,,0.00,Rainwise IP-100,2013-01-30 01:15:00,
2013-01-29 17:20:00,50.8,42.0,30.19,SSW,202,0.0,0.0,72,0.00,,,0.00,Rainwise IP-100,2013-01-30 01:20:00,
2013-01-29 17:25:00,50.5,42.0,30.19,SSW,202,0.0,0.0,73,0.00,,,0.00,Rainwise IP-100,2013-01-30 01:25:00,
2013-01-29 17:30:00,50.3,42.0,30.19,SSW,202,0.0,0.0,74,0.00,,,0.00,Rainwise IP-100,2013-01-30 01:30:00,
2013-01-29 17:35:00,50.0,42.0,30.19,SSW,202,0.0,0.0,75,0.00,,,0.00,Rainwise IP-100,2013-01-30 01:35:00,
2013-01-29 17:40:00,49.9,42.0,30.19,SSW,202,0.0,0.0,76,0.00,,,0.00,Rainwise IP-100,2013-01-30 01:40:00,
2013-01-29 17:45:00,49.7,42.0,30.19,SSW,202,0.0,0.0,76,0.00,,,0.00,Rainwise IP-100,2013-01-30 01:45:00,
2013-01-29 17:50:00,49.4,42.0,30.19,SSW,202,0.0,0.0,77,0.00,,,0.00,Rainwise IP-100,2013-01-30 01:50:00,
2013-01-29 17:55:00,49.3,42.0,30.19,SSW,202,0.0,0.0,78,0.00,,,0.00,Rainwise IP-100,2013-01-30 01:55:00,
2013-01-29 18:00:00,49.3,42.0,30.19,SSW,202,0.0,1.2,78,0.00,,,0.00,Rainwise IP-100,2013-01-30 02:00:00,
2013-01-29 18:05:00,49.2,43.0,30.19,SSW,202,0.0,0.0,79,0.00,,,0.00,Rainwise IP-100,2013-01-30 02:05:00,
2013-01-29 18:10:00,49.0,43.0,30.19,SSW,202,0.0,0.0,79,0.00,,,0.00,Rainwise IP-100,2013-01-30 02:10:00,
2013-01-29 18:15:00,48.9,43.0,30.19,SSW,202,0.0,0.0,80,0.00,,,0.00,Rainwise IP-100,2013-01-30 02:15:00,
2013-01-29 18:20:00,48.8,43.0,30.19,SSW,202,0.0,0.0,80,0.00,,,0.00,Rainwise IP-100,2013-01-30 02:20:00,
2013-01-29 18:25:00,48.6,43.0,30.20,SSW,202,0.0,0.0,81,0.00,,,0.00,Rainwise IP-100,2013-01-30 02:25:00,
2013-01-29 18:30:00,49.0,43.0,30.19,SSW,202,0.0,0.0,81,0.00,,,0.00,Rainwise IP-100,2013-01-30 02:30:00,
2013-01-29 18:35:00,49.7,44.0,30.20,SSW,202,0.0,0.0,80,0.00,,,0.00,Rainwise IP-100,2013-01-30 02:35:00,
2013-01-29 18:40:00,50.0,43.0,30.20,SSW,202,0.0,1.2,79,0.00,,,0.00,Rainwise IP-100,2013-01-30 02:40:00,
2013-01-29 18:45:00,49.8,43.0,30.20,SSW,202,0.0,0.0,79,0.00,,,0.00,Rainwise IP-100,2013-01-30 02:45:00,
2013-01-29 18:50:00,49.4,43.0,30.20,SSW,202,0.0,0.0,80,0.00,,,0.00,Rainwise IP-100,2013-01-30 02:50:00,
2013-01-29 18:55:00,49.1,43.0,30.20,SSW,202,0.0,0.0,80,0.00,,,0.00,Rainwise IP-100,2013-01-30 02:55:00,
2013-01-29 19:00:00,48.9,43.0,30.20,SSW,202,0.0,0.0,81,0.00,,,0.00,Rainwise IP-100,2013-01-30 03:00:00,
2013-01-29 19:05:00,48.7,43.0,30.20,SSW,202,0.0,0.0,80,0.00,,,0.00,Rainwise IP-100,2013-01-30 03:05:00,
2013-01-29 19:10:00,48.4,42.0,30.20,SSW,202,0.0,0.0,80,0.00,,,0.00,Rainwise IP-100,2013-01-30 03:10:00,
2013-01-29 19:15:00,48.3,42.0,30.20,West,270,1.4,2.6,80,0.00,,,0.00,Rainwise IP-100,2013-01-30 03:15:00,
2013-01-29 19:20:00,48.2,42.0,30.20,West,270,1.4,1.9,80,0.00,,,0.00,Rainwise IP-100,2013-01-30 03:20:00,
2013-01-29 19:25:00,48.2,42.0,30.20,West,270,1.2,2.1,80,0.00,,,0.00,Rainwise IP-100,2013-01-30 03:25:00,
2013-01-29 19:30:00,48.2,42.0,30.20,West,270,0.0,1.9,80,0.00,,,0.00,Rainwise IP-100,2013-01-30 03:30:00,
2013-01-29 19:35:00,48.2,42.0,30.20,West,270,1.2,1.2,80,0.00,,,0.00,Rainwise IP-100,2013-01-30 03:35:00,
2013-01-29 19:40:00,48.1,42.0,30.20,West,270,0.0,1.4,80,0.00,,,0.00,Rainwise IP-100,2013-01-30 03:40:00,
2013-01-29 19:45:00,47.9,42.0,30.20,West,270,0.0,1.6,80,0.00,,,0.00,Rainwise IP-100,2013-01-30 03:45:00,
2013-01-29 19:50:00,47.8,42.0,30.20,West,270,1.2,1.6,80,0.00,,,0.00,Rainwise IP-100,2013-01-30 03:50:00,
2013-01-29 19:55:00,47.7,41.0,30.20,West,270,1.4,1.9,80,0.00,,,0.00,Rainwise IP-100,2013-01-30 03:55:00,
2013-01-29 20:00:00,47.8,42.0,30.21,West,270,1.4,1.6,79,0.00,,,0.00,Rainwise IP-100,2013-01-30 04:00:00,
2013-01-29 20:05:00,47.8,42.0,30.20,West,270,1.2,1.6,79,0.00,,,0.00,Rainwise IP-100,2013-01-30 04:05:00,
2013-01-29 20:10:00,47.7,41.0,30.20,West,270,0.0,1.4,79,0.00,,,0.00,Rainwise IP-100,2013-01-30 04:10:00,
2013-01-29 20:15:00,47.6,41.0,30.20,West,270,1.2,1.2,79,0.00,,,0.00,Rainwise IP-100,2013-01-30 04:15:00,
2013-01-29 20:20:00,47.6,41.0,30.20,West,270,0.0,1.4,78,0.00,,,0.00,Rainwise IP-100,2013-01-30 04:20:00,
2013-01-29 20:25:00,47.6,41.0,30.21,West,270,0.0,1.4,78,0.00,,,0.00,Rainwise IP-100,2013-01-30 04:25:00,
2013-01-29 20:30:00,47.2,40.0,30.21,West,270,1.2,1.4,78,0.00,,,0.00,Rainwise IP-100,2013-01-30 04:30:00,
2013-01-29 20:35:00,46.8,40.0,30.21,West,270,0.0,1.4,79,0.00,,,0.00,Rainwise IP-100,2013-01-30 04:35:00,
2013-01-29 20:40:00,46.5,41.0,30.21,West,270,0.0,0.0,80,0.00,,,0.00,Rainwise IP-100,2013-01-30 04:40:00,
2013-01-29 20:45:00,46.1,40.0,30.21,West,270,0.0,0.0,80,0.00,,,0.00,Rainwise IP-100,2013-01-30 04:45:00,
2013-01-29 20:50:00,45.9,40.0,30.21,West,270,1.4,1.9,81,0.00,,,0.00,Rainwise IP-100,2013-01-30 04:50:00,
2013-01-29 20:55:00,46.2,40.0,30.21,WNW,292,1.2,1.9,80,0.00,,,0.00,Rainwise IP-100,2013-01-30 04:55:00,
2013-01-29 21:00:00,46.6,40.0,30.20,WNW,292,1.4,1.6,79,0.00,,,0.00,Rainwise IP-100,2013-01-30 05:00:00,
2013-01-29 21:05:00,46.8,40.0,30.20,WNW,292,0.0,1.6,79,0.00,,,0.00,Rainwise IP-100,2013-01-30 05:05:00,
2013-01-29 21:10:00,46.9,40.0,30.20,WNW,292,1.6,2.1,78,0.00,,,0.00,Rainwise IP-100,2013-01-30 05:10:00,
2013-01-29 21:15:00,46.7,40.0,30.20,WNW,292,0.0,2.1,78,0.00,,,0.00,Rainwise IP-100,2013-01-30 05:15:00,
2013-01-29 21:20:00,46.4,39.0,30.20,WNW,292,0.0,1.6,79,0.00,,,0.00,Rainwise IP-100,2013-01-30 05:20:00,
2013-01-29 21:25:00,46.2,39.0,30.20,WNW,292,0.0,1.9,79,0.00,,,0.00,Rainwise IP-100,2013-01-30 05:25:00,
2013-01-29 21:30:00,46.1,40.0,30.20,WNW,292,0.0,0.0,80,0.00,,,0.00,Rainwise IP-100,2013-01-30 05:30:00,
2013-01-29 21:35:00,45.9,40.0,30.20,WNW,292,0.0,1.4,80,0.00,,,0.00,Rainwise IP-100,2013-01-30 05:35:00,
2013-01-29 21:40:00,45.8,40.0,30.20,WNW,292,0.0,1.2,80,0.00,,,0.00,Rainwise IP-100,2013-01-30 05:40:00,
2013-01-29 21:45:00,45.5,40.0,30.20,WNW,292,0.0,1.2,81,0.00,,,0.00,Rainwise IP-100,2013-01-30 05:45:00,
2013-01-29 21:50:00,45.2,40.0,30.20,WNW,292,0.0,0.0,82,0.00,,,0.00,Rainwise IP-100,2013-01-30 05:50:00,
2013-01-29 21:55:00,45.0,40.0,30.20,WNW,292,0.0,0.0,82,0.00,,,0.00,Rainwise IP-100,2013-01-30 05:55:00,
2013-01-29 22:00:00,45.0,40.0,30.20,WNW,292,0.0,1.2,82,0.00,,,0.00,Rainwise IP-100,2013-01-30 06:00:00,
2013-01-29 22:05:00,44.8,40.0,30.20,WNW,292,0.0,0.0,82,0.00,,,0.00,Rainwise IP-100,2013-01-30 06:05:00,
2013-01-29 22:10:00,44.3,39.0,30.20,WNW,292,0.0,0.0,83,0.00,,,0.00,Rainwise IP-100,2013-01-30 06:10:00,
2013-01-29 22:15:00,43.8,39.0,30.20,WNW,292,0.0,0.0,84,0.00,,,0.00,Rainwise IP-100,2013-01-30 06:15:00,
2013-01-29 22:20:00,43.3,39.0,30.20,WNW,292,0.0,0.0,85,0.00,,,0.00,Rainwise IP-100,2013-01-30 06:20:00,
2013-01-29 22:25:00,43.0,39.0,30.21,WNW,292,0.0,0.0,86,0.00,,,0.00,Rainwise IP-100,2013-01-30 06:25:00,
2013-01-29 22:30:00,42.8,39.0,30.20,WNW,292,0.0,0.0,86,0.00,,,0.00,Rainwise IP-100,2013-01-30 06:30:00,
2013-01-29 22:35:00,42.6,39.0,30.21,WNW,292,0.0,0.0,87,0.00,,,0.00,Rainwise IP-100,2013-01-30 06:35:00,
2013-01-29 22:40:00,42.4,39.0,30.21,WNW,292,0.0,0.0,88,0.00,,,0.00,Rainwise IP-100,2013-01-30 06:40:00,
2013-01-29 22:45:00,42.3,39.0,30.21,WNW,292,0.0,0.0,88,0.00,,,0.00,Rainwise IP-100,2013-01-30 06:45:00,
2013-01-29 22:50:00,42.0,39.0,30.21,WNW,292,0.0,0.0,89,0.00,,,0.00,Rainwise IP-100,2013-01-30 06:50:00,
2013-01-29 22:55:00,41.9,39.0,30.21,WNW,292,0.0,0.0,89,0.00,,,0.00,Rainwise IP-100,2013-01-30 06:55:00,
2013-01-29 23:00:00,42.3,39.0,30.21,WNW,292,0.0,2.1,89,0.00,,,0.00,Rainwise IP-100,2013-01-30 07:00:00,
2013-01-29 23:05:00,42.9,40.0,30.21,WNW,292,0.0,1.6,88,0.00,,,0.00,Rainwise IP-100,2013-01-30 07:05:00,
2013-01-29 23:10:00,43.3,39.0,30.22,WNW,292,0.0,0.0,87,0.00,,,0.00,Rainwise IP-100,2013-01-30 07:10:00,
2013-01-29 23:15:00,43.1,39.0,30.21,WNW,292,0.0,0.0,87,0.00,,,0.00,Rainwise IP-100,2013-01-30 07:15:00,
2013-01-29 23:20:00,42.9,39.0,30.22,WNW,292,0.0,1.2,87,0.00,,,0.00,Rainwise IP-100,2013-01-30 07:20:00,
2013-01-29 23:25:00,42.9,40.0,30.22,WNW,292,0.0,0.0,88,0.00,,,0.00,Rainwise IP-100,2013-01-30 07:25:00,
2013-01-29 23:30:00,42.5,40.0,30.22,WNW,292,0.0,1.2,88,0.00,,,0.00,Rainwise IP-100,2013-01-30 07:30:00,
2013-01-29 23:35:00,42.3,39.0,30.22,WNW,292,0.0,0.0,88,0.00,,,0.00,Rainwise IP-100,2013-01-30 07:35:00,
2013-01-29 23:40:00,42.3,39.0,30.22,WNW,292,0.0,0.0,89,0.00,,,0.00,Rainwise IP-100,2013-01-30 07:40:00,
2013-01-29 23:45:00,42.2,39.0,30.22,WNW,292,1.6,1.6,89,0.00,,,0.00,Rainwise IP-100,2013-01-30 07:45:00,
2013-01-29 23:50:00,42.9,40.0,30.22,WNW,292,1.4,2.6,88,0.00,,,0.00,Rainwise IP-100,2013-01-30 07:50:00,
2013-01-29 23:55:00,43.9,40.0,30.23,WNW,292,0.0,2.3,86,0.00,,,0.00,Rainwise IP-100,2013-01-30 07:55:00,